{"data":{"norad_id":51624,"epoch":"2026-05-25T04:17:27.581280Z","epoch_age_seconds":56228,"freshness":"FRESH","line1":"1 51624U 22012C   26145.17879145  .00000043  00000+0  86500-4 0  9994","line2":"2 51624  87.8848  40.8456 0001591  84.3737 275.7572 13.10370079206271","mean_motion":13.10370079,"eccentricity":0.0001591,"inclination_deg":87.8848,"raan_deg":40.8456,"arg_perigee_deg":84.3737,"mean_anomaly_deg":275.7572,"bstar":8.65e-5,"rev_number":20627,"period_min":109.89261912169,"perigee_km":1220.5185988201,"apogee_km":1222.9368757796,"semimajor_km":7599.8647372999,"source":"CELESTRAK","updated_at":"2026-05-25T13:38:22.575989Z"}}